Location: Gerlach
(40.6516°N, 119.3568°W)
Time: 05:27:31
(UTC-07:00)

Vanguard 2 Rocket - Pass Details

Date: 23 February 2024
Orbit: 555 x 3307 km, 32.9° (Epoch: 23 April)

Event Time Altitude Azimuth Distance (km) Brightness Sun altitude
Rises 22:42:26 0° 274° (W) 7,065 11.8 -53.3°
Reaches altitude 10° 22:50:38 10° 255° (WSW) 6,243 11.2 -54.3°
Maximum altitude 22:59:22 15° 229° (SW) 5,811 10.8 -55.2°
Enters shadow 23:00:42 14° 224° (SW) 5,794 10.8 -55.3°
